Printer-friendly version

IAU Minor Planet Center

Minor Planet Center

MPEC 2000-U19: 2000 SG344

The following Minor Planet Electronic Circular may be linked-to from your own Web pages, but must not otherwise be redistributed electronically.


Read MPEC 2000-U18 Read MPEC 2000-U20


M.P.E.C. 2000-U19                                Issued 2000 Oct. 24, 17:49 UT

     The Minor Planet Electronic Circulars contain information on unusual
         minor planets and routine data on comets.  They are published
   on behalf of Commission 20 of the International Astronomical Union by the
          Minor Planet Center, Smithsonian Astrophysical Observatory,
                          Cambridge, MA 02138, U.S.A.

             Prepared using the Tamkin Foundation Computer Network

                              MPC@CFA.HARVARD.EDU
          URL http://cfa-www.harvard.edu/iau/mpc.html  ISSN 1523-6714

                                  2000 SG344

Observations:
     K00SY4G*2C2000 09 29.59072 08 16 17.67 +19 54 17.9          21.5 R      568
     K00SY4G 2C2000 09 29.59664 08 16 20.03 +19 54 10.4          22.2 R      568
     K00SY4G 2C2000 09 30.60294 08 23 42.79 +19 27 05.9          21.6 R      568
     K00SY4G 2C2000 09 30.60424 08 23 43.31 +19 27 04.1          22.2 R      568
     K00SY4G 2C2000 09 30.60832 08 23 44.91 +19 26 58.6          21.7 R      568
     K00SY4G 2C2000 09 30.61020 08 23 45.62 +19 26 56.1          21.5 R      568
     K00SY4G 2C2000 09 30.61288 08 23 46.64 +19 26 53.1          22.4 R      568
     K00SY4G 2C2000 09 30.61418 08 23 47.16 +19 26 51.3          21.8 R      568
     K00SY4G 2C2000 09 30.61700 08 23 48.22 +19 26 47.5          22.0 R      568
     K00SY4G 2C2000 09 30.61891 08 23 48.98 +19 26 44.9          21.4 R      568
     K00SY4G 2C2000 10 01.59562 08 30 48.28 +18 59 52.1          22.0 R      568
     K00SY4G 2C2000 10 01.59838 08 30 49.35 +18 59 48.3          21.7 R      568
     K00SY4G 2C2000 10 01.61497 08 30 55.62 +18 59 25.7          21.4 R      568
     K00SY4G 2C2000 10 01.61774 08 30 56.65 +18 59 21.9          21.9 R      568
     K00SY4G 2C2000 10 02.59728 08 37 45.52 +18 32 03.9          22.1 R      568
     K00SY4G 2C2000 10 02.60116 08 37 46.94 +18 31 58.5          22.1 R      568
     K00SY4G 2C2000 10 03.60336 08 44 32.72 +18 03 52.9          22.2 R      568
     K00SY4G 2C2000 10 03.60723 08 44 34.08 +18 03 47.6          22.2 R      568

Observer details:
568 Mauna Kea.  Observers D. J. Tholen, R. J. Whiteley.  2.2-m University of
    Hawaii reflector + CCD.

Orbital elements:
2000 SG344
Epoch 2000 Sept. 13.0 TT = JDT 2451800.5                Spahr
M 253.70746              (2000.0)            P               Q
n   1.01762181     Peri.  273.76785     -0.28243659     -0.95928588
a   0.9789153      Node   192.63785     +0.88089441     -0.25918138
e   0.0682523      Incl.    0.11094     +0.37980866     -0.11223020
P   0.97           H   24.5           G   0.15
From 18 observations 2000 Sept. 29-Oct. 3.

Ephemeris:
2000 SG344               a,e,i = 0.98, 0.07, 0                   q = 0.9121
Date    TT    R. A. (2000) Decl.     Delta      r     Elong.  Phase     V
2000 09 03    04 21.22   +22 48.9    0.043    1.012    93.5    84.1    20.6
2000 09 13    05 50.67   +24 21.1    0.040    1.002    82.6    95.1    20.9
2000 09 23    07 22.83   +22 31.7    0.043    0.990    71.2   106.5    21.6
2000 10 03    08 40.33   +18 21.3    0.049    0.979    62.4   115.0    22.4
2000 10 13    09 39.47   +13 40.0    0.059    0.967    57.3   119.7    23.1
2000 10 23    10 25.70   +09 17.0    0.073    0.955    55.1   121.3    23.6
2000 11 02    11 03.86   +05 19.7    0.088    0.944    54.9   120.8    24.0
2000 11 12    11 37.42   +01 43.2    0.106    0.934    55.8   118.9    24.2

Timothy B. Spahr             (C) Copyright 2000 MPC           M.P.E.C. 2000-U19

Read MPEC 2000-U18 Read MPEC 2000-U20


Our Web policy. Index to the CBAT/MPC/ICQ pages.


Valid HTML 4.01!